Ostrava, Czech Republic

1:52 AM CEST on August 29, 2016 (GMT +0200)
Mosnov

Weather History for LKMT - December, 2012

Change the Weather History Date:

Tuesday, December 4, 2012

  Actual Average (EPKT) Record (EPKT)
Temperature  
Mean Temperature 28 °F -  
Max Temperature 34 °F 36 °F 48 °F (2011)
Min Temperature 22 °F 25 °F 0 °F (2010)
Degree Days  
Heating Degree Days 37    
Moisture  
Dew Point 27 °F    
Average Humidity 85    
Maximum Humidity 93    
Minimum Humidity 64    
Precipitation  
Precipitation 0.00 in 0.04 in - ()
Sea Level Pressure  
Sea Level Pressure 29.57 in    
Wind  
Wind Speed 8 mph ()    
Max Wind Speed 21 mph    
Max Gust Speed -    
Visibility 4.8 miles    
Events Snow    
Averages and records for this station are not official NWS values.
T = Trace of Precipitation, MM = Missing Value Source: Averaged Metar Reports

Daily Weather History Graph

Daily Weather History Graph

Search for Another Location

Airport or City:

Trip Planner

Search our weather history database for the weather conditions in past years. The results will help you decide how hot, cold, wet, or windy it might be!

Date:

Astronomy

Dec. 04, 2012 Rise Set
Actual Time 7:27 AM CET 3:48 PM CET
Civil Twilight 6:49 AM CET 4:25 PM CET
Nautical Twilight 6:09 AM CET 5:06 PM CET
Astronomical Twilight 5:30 AM CET 5:45 PM CET
Moon 9:38 PM CET (12/4) 10:54 AM CET (12/4)
Length of Visible Light 9h 36m
Length of Day
8h 21m
Waning Gibbous, 72% of the Moon is Illuminated
Dec 4
Waning Gibbous
Dec 6
Last Quarter
Dec 13
New
Dec 20
First Quarter
Dec 28
Full

Hourly Weather History & Observations

Time (CET) Temp. Windchill Dew Point Humidity Pressure Visibility Wind Dir Wind Speed Gust Speed Precip Events Conditions
12:00 AM 26.6 °F 20.0 °F 23.0 °F 86% 29.80 in 5.0 mi South 5.8 mph - N/A   Unknown
12:30 AM 24.8 °F 17.9 °F 23.0 °F 93% 29.77 in 5.0 mi South 5.8 mph - N/A   Unknown
1:00 AM 25 °F - 22 °F 82% 29.83 in 5 mi South 4.5 mph - -   Mist
1:00 AM 24.8 °F 19.1 °F 21.2 °F 86% 29.77 in 5.6 mi South 4.6 mph - N/A   Unknown
1:30 AM 26.6 °F 20.0 °F 23.0 °F 86% 29.74 in - South 5.8 mph - N/A   Clear
2:00 AM 24.8 °F 17.9 °F 21.2 °F 86% 29.74 in - South 5.8 mph - N/A   Clear
2:30 AM 23.0 °F 15.8 °F 21.2 °F 93% 29.71 in - SSW 5.8 mph - N/A   Clear
3:00 AM 24.8 °F 19.1 °F 23.0 °F 93% 29.71 in - SSW 4.6 mph - N/A   Clear
3:30 AM 26.6 °F - 23.0 °F 86% 29.68 in - Variable 2.3 mph - N/A   Clear
4:00 AM 28.4 °F 21.2 °F 23.0 °F 80% 29.68 in - SSW 6.9 mph - N/A   Clear
4:30 AM 28.4 °F 19.1 °F 23.0 °F 80% 29.65 in - SSW 10.4 mph - N/A   Clear
5:00 AM 28.4 °F 19.1 °F 23.0 °F 80% 29.62 in - SSW 10.4 mph - N/A   Clear
5:30 AM 30.2 °F 21.3 °F 23.0 °F 75% 29.62 in - SSW 10.4 mph - N/A   Clear
6:00 AM 30.2 °F 20.2 °F 23.0 °F 75% 29.59 in - SSW 12.7 mph - N/A   Clear
6:30 AM 30.2 °F 20.8 °F 23.0 °F 75% 29.59 in 6.2 mi SSW 11.5 mph - N/A   Scattered Clouds
7:00 AM 30 °F - 22 °F 64% 29.65 in 9 mi SW 8.9 mph - -   Overcast
7:00 AM 30.2 °F 21.3 °F 23.0 °F 75% 29.59 in 6.2 mi SSW 10.4 mph - N/A   Mostly Cloudy
7:30 AM 30.2 °F 24.3 °F 23.0 °F 75% 29.56 in 6.2 mi South 5.8 mph - N/A   Partly Cloudy
8:00 AM 30.2 °F - 23.0 °F 75% 29.59 in 6.2 mi West 2.3 mph - N/A   Mostly Cloudy
8:30 AM 32.0 °F 23.0 °F 24.8 °F 75% 29.56 in 6.2 mi SSW 11.5 mph - N/A   Mostly Cloudy
8:48 AM 32.0 °F 23.0 °F 24.8 °F 75% 29.56 in 6.2 mi SSW 11.5 mph - N/A Snow Light Snow
9:00 AM 32.0 °F 23.6 °F 26.6 °F 80% 29.56 in 6.2 mi SW 10.4 mph - N/A Snow Light Snow
9:30 AM 32.0 °F 22.5 °F 26.6 °F 80% 29.56 in 6.2 mi SSW 12.7 mph - N/A   Mostly Cloudy
10:00 AM 32.0 °F 23.0 °F 26.6 °F 80% 29.56 in 6.2 mi SW 11.5 mph - N/A Snow Light Snow
10:30 AM 32.0 °F 19.8 °F 26.6 °F 80% 29.56 in 6.2 mi SW 20.7 mph - N/A Snow Light Snow
11:00 AM 32.0 °F 21.2 °F 26.6 °F 80% 29.56 in 6.2 mi SW 16.1 mph - N/A Snow Light Snow
11:30 AM 32.0 °F 22.5 °F 28.4 °F 87% 29.56 in 6.2 mi SW 12.7 mph - N/A Snow Light Snow
12:00 PM 32.0 °F 20.8 °F 28.4 °F 87% 29.53 in 6.2 mi SW 17.3 mph - N/A   Overcast
12:30 PM 32.0 °F 22.5 °F 28.4 °F 87% 29.53 in 6.2 mi SW 12.7 mph - N/A   Overcast
1:00 PM 33 °F - 29 °F 78% 29.57 in 7 mi WSW 8.9 mph - -   Partly Cloudy
1:00 PM 33.8 °F 26.4 °F 28.4 °F 81% 29.53 in 6.2 mi WSW 9.2 mph - N/A   Overcast
1:30 PM 33.8 °F 26.4 °F 28.4 °F 81% 29.50 in 6.2 mi WSW 9.2 mph - N/A   Overcast
2:00 PM 33.8 °F 26.4 °F 28.4 °F 81% 29.50 in 6.2 mi SW 9.2 mph - N/A   Overcast
2:30 PM 33.8 °F 25.3 °F 28.4 °F 81% 29.47 in 6.2 mi SW 11.5 mph - N/A   Overcast
3:00 PM 33.8 °F 24.3 °F 28.4 °F 81% 29.47 in 3.1 mi SW 13.8 mph - N/A Snow Light Snow
3:30 PM 32.0 °F 24.2 °F 30.2 °F 93% 29.47 in 3.1 mi SW 9.2 mph - N/A Snow Light Snow
4:00 PM 33.8 °F 25.8 °F 30.2 °F 87% 29.47 in 5.6 mi SSW 10.4 mph - N/A Snow Light Snow
4:30 PM 32.0 °F 25.6 °F 30.2 °F 93% 29.47 in 3.7 mi West 6.9 mph - N/A Snow Light Snow
5:00 PM 32.0 °F 24.2 °F 30.2 °F 93% 29.47 in 3.1 mi WSW 9.2 mph - N/A Snow Light Snow
5:30 PM 32.0 °F 24.8 °F 30.2 °F 93% 29.47 in 2.8 mi SW 8.1 mph - N/A Snow Light Snow
6:00 PM 32.0 °F 25.6 °F 30.2 °F 93% 29.47 in 2.5 mi WSW 6.9 mph - N/A Snow Light Snow
6:30 PM 32.0 °F 27.5 °F 30.2 °F 93% 29.47 in 2.8 mi West 4.6 mph - N/A Snow Light Snow
7:00 PM 32 °F - 30 °F 91% 29.54 in 5 mi 4.5 mph - - Snow Light Snow
7:00 PM 32.0 °F 28.7 °F 30.2 °F 93% 29.47 in 5.0 mi West 3.5 mph - N/A   Overcast
7:30 PM 32.0 °F 28.7 °F 30.2 °F 93% 29.47 in 5.0 mi North 3.5 mph - N/A   Overcast
8:00 PM 32.0 °F 25.6 °F 30.2 °F 93% 29.47 in 3.7 mi West 6.9 mph - N/A Snow Light Snow
8:30 PM 32.0 °F 24.2 °F 30.2 °F 93% 29.47 in 3.7 mi WSW 9.2 mph - N/A Snow Light Snow
9:00 PM 32.0 °F 23.0 °F 30.2 °F 93% 29.47 in 3.7 mi SW 11.5 mph - N/A Snow Light Snow
9:30 PM 32.0 °F 23.6 °F 30.2 °F 93% 29.50 in 2.5 mi SW 10.4 mph - N/A Snow Light Snow
9:33 PM 32.0 °F 23.6 °F 30.2 °F 93% 29.50 in 2.2 mi SW 10.4 mph - N/A Snow Snow
9:39 PM 32.0 °F 23.6 °F 30.2 °F 93% 29.50 in 1.2 mi SW 10.4 mph - N/A Snow Snow
10:00 PM 32.0 °F 23.6 °F 30.2 °F 93% 29.50 in 1.2 mi SW 10.4 mph - N/A Snow Snow
10:30 PM 32.0 °F 23.6 °F 30.2 °F 93% 29.50 in 1.2 mi SW 10.4 mph - N/A Snow Snow
11:00 PM 32.0 °F 23.6 °F 30.2 °F 93% 29.50 in 1.9 mi SW 10.4 mph - N/A Snow Light Snow
11:30 PM 32.0 °F 22.5 °F 30.2 °F 93% 29.50 in 5.0 mi SW 12.7 mph - N/A Snow Light Snow